User: anonymous   Login
Location: Cheching
(60.0667°N, 164.2167°W)
Time: 00:32:03
(UTC+00:00)
Language:

PRISM - Orbit

View from above orbital plane
View from above orbital plane
View from above satellite
View from above satellite

Ground track
Ground track

The orbit data is extracted from the following two-line orbital elements,

1 33493U 09002B   21023.53536269  .00000775  00000-0  72161-4 0  9990
2 33493  98.1699 339.2899 0015738  49.6287 310.6305 14.97385042652632
Epoch (UTC): 23 January 2021 12:50:55
Eccentricity: 0.0015738
inclination: 98.1699°
perigee height: 564 km
apogee height: 586 km
right ascension of ascending node: 339.2899°
argument of perigee: 49.6287°
revolutions per day: 14.97385042
mean anomaly at epoch: 310.6305°
orbit number at epoch: 65263

The dashed part of the orbit path shows where the satellite is in the earth's shadow,  

DLR